Powrót do katalogu

STARLINK-31541

AktywnyŁącznośćVLEO
NORAD 59633·PAYLOAD·🇺🇸 United States

Wystrzelony May 3, 2024 z Cape Canaveral Space Force Station

Loading…

Następne Przeloty (najbliższe 24 godziny)

TLE

ŚwieżeSource: CelesTrak SupGP

Epoka: Sep 14, 2026, 22:17 UTC

1 59633C 24082C   26257.92895833 -.00051718  00000+0 -18734-2 0  2576
2 59633  42.9992 143.9702 0001227 268.1766 168.4482 15.27601534    15

Śledź STARLINK-31541 w czasie rzeczywistym z AllMySat

Download on the App Store